This is the latest recevied weather packets stored in our database for station/object KQ4NAL. If no packets are shown the sender has not sent any weather packets the latest 1 day(s).
| Time | Temp. | Humidity | Pressure | Rain* | Wind** | Luminosity | Snow |
|---|---|---|---|---|---|---|---|
| 1836274755 | 17.78° C | 84% | 1019.2 hPa | 0 mm | 0 m/s | 0 W/m² | - |
| 1836274453 | 17.78° C | 83% | 1019.2 hPa | 0 mm | 0 m/s | 0 W/m² | - |
| 1836274306 | 17.78° C | 84% | 1019 hPa | 0 mm | 0 m/s | 0 W/m² | - |
| 1836274151 | 18.33° C | 81% | 1019 hPa | 0 mm | 0 m/s | 0 W/m² | - |
| 1778052208 | 8.89° C | 99% | 1008.1 hPa | 8.89 mm | 3.58 m/s, 341° | 0 W/m² | - |
| 1778051905 | 8.89° C | 99% | 1008.1 hPa | 6.1 mm | 1.79 m/s, 11° | 0 W/m² | - |
| 1778051603 | 9.44° C | 99% | 1008.6 hPa | 1.78 mm | 2.24 m/s, 28° | 0 W/m² | - |
| 1778051300 | 9.44° C | 99% | 1008.5 hPa | 1.78 mm | 2.24 m/s, 338° | 0 W/m² | - |
| 1778050997 | 9.44° C | 99% | 1007.9 hPa | 3.05 mm | 2.24 m/s, 320° | 0 W/m² | - |
| 1778050694 | 10° C | 99% | 1007.7 hPa | 1.27 mm | 1.79 m/s, 35° | 0 W/m² | - |
| 1778050391 | 10° C | 99% | 1007.6 hPa | 0 mm | 2.24 m/s, 318° | 0 W/m² | - |
| 1778050088 | 10.56° C | 99% | 1007.6 hPa | 1.78 mm | 3.13 m/s, 300° | 0 W/m² | - |
| 1778049783 | 10.56° C | 99% | 1007.7 hPa | 3.05 mm | 1.79 m/s, 341° | 0 W/m² | - |
| 1778049481 | 11.11° C | 99% | 1007.3 hPa | 3.05 mm | 2.24 m/s, 279° | 0 W/m² | - |
| 1778049178 | 11.11° C | 99% | 1007.1 hPa | 4.83 mm | 2.24 m/s, 317° | 0 W/m² | - |
| 1778048877 | 11.67° C | 99% | 1007.3 hPa | 8.89 mm | 3.58 m/s, 342° | 0 W/m² | - |
| 1778048574 | 12.22° C | 99% | 1007.3 hPa | 12.7 mm | 2.68 m/s, 331° | 0 W/m² | - |
| 1778048270 | 13.33° C | 99% | 1007.4 hPa | 10.67 mm | 4.47 m/s, 333° | 0 W/m² | - |
| 1778047967 | 14.44° C | 99% | 1007.4 hPa | 10.67 mm | 0 m/s | 0 W/m² | - |
| 1778047665 | 14.44° C | 99% | 1007.2 hPa | 10.16 mm | 0 m/s | 0 W/m² | - |
| 1778047363 | 14.44° C | 99% | 1007.3 hPa | 8.89 mm | 1.79 m/s, 187° | 0 W/m² | - |
| 1778047059 | 14.44° C | 99% | 1007.3 hPa | 10.67 mm | 0.45 m/s, 319° | 0 W/m² | - |
| 1778046756 | 14.44° C | 99% | 1007.4 hPa | 10.67 mm | 0.45 m/s, 234° | 0 W/m² | - |
| 1778046453 | 14.44° C | 99% | 1007.6 hPa | 6.1 mm | 0.45 m/s, 355° | 0 W/m² | - |
| 1778046149 | 14.44° C | 99% | 1007.6 hPa | 3.05 mm | 0 m/s | 0 W/m² | - |
* Rain latest hour (hover to see other rain measurements)
** Current wind speed in m/s (hover to see current wind gust speed)